Location: Grandview
(34.8900°N, 117.1058°W)
Time: 02:14:56
(UTC-07:00)

N. Korean satellite - Pass Details

Date: 12 October 2017
Orbit: 459 x 517 km, 97.2° (Epoch: 18 October)

Event Time Altitude Azimuth Distance (km) Brightness Sun altitude
Rises 18:42:43 0° 160° (SSE) 2,562 10.1 -6.1°
Reaches altitude 10° 18:44:49 10° 156° (SSE) 1,674 9.1 -6.5°
Maximum altitude 18:48:22 58° 77° (ENE) 566 6.6 -7.2°
Drops below altitude 10° 18:51:52 10° 357° (N) 1,654 9.3 -7.9°
Sets 18:53:55 0° 354° (N) 2,527 10.2 -8.4°
